Weather History for KBLF - December, 2012

Change the Weather History Date:

Monday, December 3, 2012

  Actual Average Record
Temperature  
Mean Temperature 61 °F 41 °F  
Max Temperature 68 °F 48 °F 71 °F (1982)
Min Temperature 54 °F 33 °F 11 °F (1966)
Degree Days  
Heating Degree Days 4 24  
Month to date heating degree days 26 72  
Since 1 July heating degree days 1098 975  
Cooling Degree Days 0 0  
Month to date cooling degree days 0 0  
Year to date cooling degree days 1007 853  
Growing Degree Days 12 (Base 50)    
Moisture  
Dew Point 48 °F    
Average Humidity 63    
Maximum Humidity 77    
Minimum Humidity 49    
Precipitation  
Precipitation 0.00 in 0.10 in 0.71 in (1983)
Month to date precipitation 0.05 0.29  
Year to date precipitation 40.43 37.01  
Snow  
Snow 0.00 in - - ()
Month to date snowfall 0.0  
Since 1 July snowfall 9.6  
Snow Depth 0.00 in    
Sea Level Pressure  
Sea Level Pressure 30.25 in    
Wind  
Wind Speed 7 mph (WSW)    
Max Wind Speed 13 mph    
Max Gust Speed 20 mph    
Visibility 10 miles    
Events      
T = Trace of Precipitation, MM = Missing Value Source: NWS Daily Summary

Daily Weather History Graph

Daily Weather History Graph

Search for Another Location

Airport or City:

Trip Planner

Search our weather history database for the weather conditions in past years. The results will help you decide how hot, cold, wet, or windy it might be!

Date:

Astronomy

Dec. 03, 2012 Rise Set
Actual Time 7:22 AM EST 5:07 PM EST
Civil Twilight 6:53 AM EST 5:35 PM EST
Nautical Twilight 6:21 AM EST 6:08 PM EST
Astronomical Twilight 5:49 AM EST 6:39 PM EST
Moon 9:49 PM EST 10:47 AM EST
Length of Visible Light 10h 42m
Length of Day
9h 44m
Waning Gibbous, 78% of the Moon is Illuminated
Dec 3
Waning Gibbous
Dec 6
Last Quarter
Dec 13
New
Dec 20
First Quarter
Dec 28
Full

Hourly Weather History & Observations

Time (EST) Temp. Dew Point Humidity Pressure Visibility Wind Dir Wind Speed Gust Speed Precip Events Conditions
12:22 AM 55.4 °F 48.2 °F 77% 30.27 in 10.0 mi West 8.1 mph - 0.00 in   Overcast
12:52 AM 55.9 °F 48.9 °F 77% 30.22 in 10.0 mi West 11.5 mph 17.3 mph 0.00 in   Overcast
1:52 AM 55.9 °F 48.0 °F 75% 30.22 in 10.0 mi West 9.2 mph - N/A   Overcast
2:13 AM 55.4 °F 48.2 °F 77% 30.28 in 10.0 mi WSW 6.9 mph - N/A   Overcast
2:52 AM 55.0 °F 48.0 °F 77% 30.23 in 10.0 mi WSW 9.2 mph - N/A   Overcast
3:52 AM 55.0 °F 48.0 °F 77% 30.23 in 10.0 mi WSW 10.4 mph - N/A   Overcast
4:06 AM 55.4 °F 48.2 °F 77% 30.28 in 10.0 mi WSW 9.2 mph - N/A   Overcast
4:45 AM 55.4 °F 48.2 °F 77% 30.28 in 10.0 mi West 10.4 mph - N/A   Overcast
4:52 AM 55.0 °F 48.0 °F 77% 30.23 in 10.0 mi WSW 9.2 mph - N/A   Overcast
5:52 AM 55.9 °F 48.0 °F 75% 30.23 in 10.0 mi WSW 6.9 mph - N/A   Overcast
6:52 AM 55.9 °F 46.9 °F 72% 30.24 in 10.0 mi West 6.9 mph - N/A   Overcast
7:15 AM 55.4 °F 46.4 °F 72% 30.30 in 10.0 mi West 9.2 mph - N/A   Overcast
7:28 AM 55.4 °F 46.4 °F 72% 30.30 in 10.0 mi West 8.1 mph - N/A   Overcast
7:39 AM 55.4 °F 46.4 °F 72% 30.30 in 10.0 mi West 9.2 mph - N/A   Overcast
7:52 AM 55.9 °F 48.0 °F 75% 30.25 in 10.0 mi West 6.9 mph - N/A   Overcast
8:44 AM 57.2 °F 48.2 °F 72% 30.31 in 10.0 mi West 8.1 mph - N/A   Mostly Cloudy
8:52 AM 57.9 °F 48.0 °F 70% 30.26 in 10.0 mi West 8.1 mph - N/A   Overcast
9:16 AM 57.2 °F 48.2 °F 72% 30.33 in 10.0 mi West 6.9 mph - N/A   Overcast
9:52 AM 61.0 °F 48.9 °F 64% 30.27 in 10.0 mi West 8.1 mph - N/A   Overcast
10:31 AM 60.8 °F 48.2 °F 63% 30.32 in 10.0 mi West 11.5 mph - N/A   Mostly Cloudy
10:38 AM 60.8 °F 48.2 °F 63% 30.32 in 10.0 mi West 10.4 mph - N/A   Mostly Cloudy
10:52 AM 62.1 °F 48.9 °F 62% 30.27 in 10.0 mi West 6.9 mph - N/A   Mostly Cloudy
11:52 AM 64.9 °F 51.1 °F 61% 30.24 in 10.0 mi WSW 8.1 mph - N/A   Mostly Cloudy
12:00 PM 64.4 °F 51.8 °F 64% 30.29 in 10.0 mi WSW 3.5 mph - N/A   Mostly Cloudy
12:52 PM 66.0 °F 51.1 °F 59% 30.21 in 10.0 mi SW 6.9 mph - N/A   Mostly Cloudy
1:37 PM 64.4 °F 48.2 °F 56% 30.27 in 10.0 mi West 4.6 mph - N/A   Scattered Clouds
1:52 PM 68.0 °F 48.9 °F 50% 30.20 in 10.0 mi Variable 6.9 mph 17.3 mph N/A   Mostly Cloudy
2:52 PM 68.0 °F 48.9 °F 50% 30.19 in 10.0 mi WSW 8.1 mph - N/A   Overcast
3:52 PM 64.9 °F 48.0 °F 54% 30.20 in 10.0 mi SSW 5.8 mph - N/A   Scattered Clouds
4:52 PM 63.0 °F 46.9 °F 56% 30.21 in 10.0 mi Variable 3.5 mph - N/A   Scattered Clouds
5:52 PM 61.0 °F 46.9 °F 60% 30.22 in 10.0 mi South 4.6 mph - N/A   Partly Cloudy
6:52 PM 61.0 °F 46.9 °F 60% 30.22 in 10.0 mi SSW 3.5 mph - N/A   Clear
7:52 PM 62.1 °F 46.9 °F 58% 30.22 in 10.0 mi SSE 4.6 mph - N/A   Clear
8:52 PM 61.0 °F 46.9 °F 60% 30.21 in 10.0 mi SSE 9.2 mph - N/A   Clear
9:52 PM 60.1 °F 46.9 °F 62% 30.20 in 10.0 mi SSE 9.2 mph 16.1 mph N/A   Clear
10:52 PM 59.0 °F 46.0 °F 62% 30.20 in 10.0 mi South 9.2 mph - N/A   Clear
11:52 PM 59.0 °F 46.0 °F 62% 30.21 in 10.0 mi SSE 3.5 mph - N/A   Clear